QPF
0.22 0.17 0.16 0.17 0.20 0.27 0.30 0.25 0.22 0.21 0.17 0.11 0.09 0.08 0.08 0.07 0.06 0.08 0.10 0.14 0.16 0.18 0.18 0.12 0.08 0.04 0.03 0.02 0.01 0.01 0.01 0.01 0.00 0.00 0.00 0.00 0.00 0.00 0.00 0.00 0.00 0.00 0.00
0.24 0.24 0.18 0.16 0.18 0.20 0.23 0.26 0.25 0.23 0.21 0.19 0.14 0.12 0.13 0.11 0.10 0.13 0.19 0.17 0.19 0.20 0.16 0.15 0.11 0.08 0.04 0.02 0.01 0.01 0.01 0.01 0.01 0.01 0.01 0.00 0.00 0.00 0.00 0.00 0.00 0.00 0.00
0.16 0.17 0.19 0.17 0.17 0.17 0.18 0.19 0.21 0.20 0.21 0.22 0.18 0.15 0.13 0.13 0.15 0.18 0.27 0.27 0.23 0.23 0.19 0.16 0.13 0.10 0.06 0.04 0.02 0.02 0.01 0.01 0.01 0.00 0.00 0.01 0.00 0.00 0.01 0.01 0.01 0.00 0.00
0.13 0.13 0.13 0.13 0.12 0.13 0.16 0.16 0.17 0.20 0.19 0.21 0.23 0.22 0.18 0.14 0.13 0.21 0.28 0.29 0.25 0.21 0.23 0.23 0.18 0.12 0.09 0.05 0.04 0.03 0.03 0.02 0.01 0.01 0.01 0.01 0.01 0.01 0.01 0.01 0.01 0.01 0.00
0.09 0.11 0.10 0.09 0.12 0.17 0.16 0.13 0.14 0.16 0.16 0.15 0.16 0.18 0.18 0.15 0.13 0.15 0.20 0.21 0.22 0.19 0.18 0.22 0.22 0.14 0.10 0.08 0.06 0.07 0.06 0.04 0.02 0.02 0.03 0.03 0.02 0.02 0.01 0.01 0.01 0.01 0.01
0.07 0.09 0.08 0.10 0.12 0.15 0.14 0.14 0.17 0.18 0.17 0.18 0.19 0.19 0.17 0.13 0.12 0.12 0.12 0.15 0.18 0.15 0.12 0.13 0.14 0.10 0.11 0.09 0.08 0.08 0.07 0.07 0.06 0.05 0.06 0.05 0.04 0.03 0.01 0.01 0.01 0.02 0.02
0.04 0.04 0.06 0.09 0.11 0.13 0.13 0.14 0.17 0.21 0.20 0.20 0.21 0.18 0.17 0.15 0.14 0.12 0.10 0.14 0.17 0.15 0.14 0.15 0.15 0.10 0.06 0.07 0.05 0.05 0.06 0.07 0.07 0.06 0.05 0.04 0.04 0.04 0.02 0.01 0.01 0.01 0.01
0.03 0.04 0.06 0.08 0.12 0.14 0.14 0.16 0.16 0.17 0.17 0.17 0.17 0.17 0.14 0.12 0.10 0.09 0.09 0.09 0.10 0.14 0.16 0.18 0.19 0.15 0.11 0.06 0.03 0.03 0.04 0.07 0.07 0.05 0.04 0.03 0.03 0.03 0.02 0.02 0.01 0.01 0.01
0.02 0.02 0.03 0.04 0.07 0.10 0.14 0.17 0.18 0.15 0.14 0.15 0.16 0.18 0.15 0.10 0.09 0.08 0.07 0.07 0.07 0.10 0.13 0.22 0.24 0.17 0.16 0.13 0.06 0.03 0.04 0.04 0.06 0.06 0.05 0.03 0.02 0.02 0.02 0.03 0.02 0.01 0.01
0.01 0.01 0.01 0.01 0.03 0.05 0.08 0.12 0.17 0.16 0.16 0.16 0.17 0.17 0.14 0.11 0.10 0.09 0.08 0.07 0.07 0.08 0.11 0.14 0.15 0.15 0.17 0.16 0.08 0.04 0.03 0.02 0.04 0.05 0.06 0.05 0.03 0.02 0.01 0.02 0.03 0.02 0.01
0.00 0.00 0.00 0.01 0.01 0.03 0.04 0.06 0.12 0.14 0.14 0.16 0.18 0.18 0.16 0.14 0.12 0.10 0.09 0.10 0.09 0.07 0.08 0.11 0.09 0.09 0.11 0.13 0.09 0.04 0.03 0.02 0.02 0.03 0.04 0.05 0.04 0.03 0.02 0.02 0.03 0.04 0.04
0.00 0.00 0.00 0.01 0.01 0.01 0.02 0.03 0.06 0.09 0.12 0.14 0.13 0.15 0.14 0.15 0.15 0.13 0.09 0.10 0.12 0.10 0.09 0.09 0.08 0.07 0.09 0.08 0.06 0.05 0.03 0.02 0.02 0.02 0.03 0.03 0.02 0.03 0.03 0.03 0.04 0.06 0.07
0.00 0.00 0.01 0.01 0.01 0.01 0.01 0.01 0.02 0.04 0.07 0.11 0.13 0.14 0.12 0.13 0.15 0.16 0.13 0.11 0.11 0.13 0.15 0.10 0.08 0.06 0.06 0.09 0.06 0.04 0.03 0.02 0.02 0.02 0.01 0.02 0.01 0.02 0.02 0.02 0.03 0.04 0.04
0.00 0.00 0.01 0.01 0.01 0.01 0.01 0.01 0.01 0.02 0.03 0.06 0.10 0.15 0.16 0.16 0.18 0.18 0.18 0.17 0.17 0.17 0.15 0.14 0.12 0.08 0.06 0.08 0.09 0.06 0.03 0.02 0.02 0.02 0.01 0.01 0.01 0.00 0.00 0.00 0.01 0.01 0.01
0.00 0.00 0.00 0.01 0.01 0.01 0.01 0.01 0.01 0.01 0.02 0.02 0.05 0.11 0.15 0.18 0.20 0.19 0.18 0.18 0.19 0.22 0.18 0.15 0.18 0.14 0.09 0.06 0.07 0.06 0.05 0.03 0.02 0.01 0.01 0.00 0.00 0.00 0.00 0.00 0.01 0.00 0.00
0.00 0.00 0.00 0.00 0.00 0.00 0.01 0.01 0.01 0.01 0.01 0.01 0.02 0.04 0.08 0.13 0.18 0.17 0.16 0.18 0.19 0.19 0.18 0.16 0.17 0.17 0.15 0.09 0.07 0.06 0.05 0.04 0.02 0.01 0.00 0.00 0.00 0.00 0.00 0.00 0.00 0.00 0.00
0.00 0.00 0.00 0.00 0.00 0.00 0.00 0.01 0.01 0.01 0.01 0.01 0.01 0.02 0.03 0.06 0.10 0.13 0.13 0.13 0.18 0.20 0.18 0.18 0.21 0.23 0.23 0.16 0.10 0.07 0.04 0.02 0.01 0.01 0.00 0.00 0.00 0.00 0.00 0.00 0.00 0.00 0.00
0.00 0.00 0.00 0.00 0.00 0.00 0.01 0.01 0.01 0.01 0.01 0.01 0.01 0.02 0.02 0.03 0.05 0.08 0.11 0.11 0.14 0.20 0.19 0.20 0.27 0.28 0.26 0.22 0.18 0.10 0.06 0.03 0.01 0.01 0.00 0.00 0.00 0.00 0.00 0.00 0.00 0.00 0.00
0.00 0.00 0.00 0.00 0.00 0.00 0.01 0.01 0.01 0.01 0.01 0.01 0.01 0.02 0.02 0.03 0.03 0.05 0.08 0.09 0.11 0.17 0.20 0.18 0.24 0.31 0.32 0.30 0.25 0.17 0.10 0.05 0.03 0.01 0.00 0.00 0.00 0.00 0.00 0.00 0.00 0.00 0.00
0.00 0.00 0.00 0.01 0.01 0.01 0.01 0.01 0.02 0.02 0.02 0.02 0.02 0.02 0.03 0.03 0.03 0.03 0.05 0.06 0.08 0.13 0.19 0.20 0.20 0.26 0.31 0.34 0.34 0.22 0.13 0.07 0.04 0.01 0.00 0.00 0.00 0.00 0.00 0.00 0.00 0.00 0.00
0.00 0.00 0.00 0.01 0.01 0.01 0.01 0.01 0.01 0.02 0.02 0.03 0.03 0.03 0.02 0.03 0.03 0.03 0.03 0.04 0.06 0.08 0.14 0.18 0.20 0.22 0.26 0.31 0.28 0.25 0.17 0.10 0.06 0.02 0.01 0.00 0.00 0.00 0.00 0.00 0.00 0.00 0.00
0.00 0.00 0.00 0.01 0.01 0.01 0.01 0.02 0.02 0.02 0.03 0.03 0.04 0.04 0.04 0.03 0.03 0.03 0.03 0.03 0.04 0.04 0.07 0.12 0.17 0.20 0.20 0.27 0.27 0.24 0.20 0.12 0.06 0.03 0.02 0.01 0.00 0.00 0.00 0.00 0.00 0.00 0.00
0.00 0.00 0.00 0.01 0.01 0.02 0.02 0.01 0.01 0.01 0.02 0.03 0.04 0.04 0.04 0.04 0.04 0.02 0.02 0.02 0.02 0.03 0.04 0.06 0.12 0.16 0.15 0.19 0.26 0.24 0.21 0.13 0.06 0.04 0.03 0.02 0.01 0.00 0.00 0.00 0.00 0.01 0.01
0.00 0.00 0.00 0.01 0.01 0.02 0.03 0.02 0.02 0.02 0.02 0.02 0.03 0.03 0.03 0.04 0.05 0.04 0.03 0.02 0.01 0.01 0.02 0.03 0.05 0.11 0.12 0.12 0.20 0.25 0.23 0.20 0.13 0.07 0.04 0.03 0.01 0.00 0.00 0.00 0.01 0.01 0.01
0.00 0.00 0.00 0.00 0.01 0.02 0.03 0.03 0.02 0.01 0.01 0.01 0.02 0.03 0.03 0.03 0.03 0.04 0.04 0.03 0.02 0.01 0.01 0.02 0.03 0.07 0.12 0.12 0.13 0.23 0.28 0.29 0.22 0.11 0.05 0.03 0.01 0.01 0.00 0.00 0.00 0.01 0.01
0.00 0.00 0.01 0.01 0.01 0.02 0.02 0.02 0.02 0.01 0.02 0.01 0.02 0.04 0.04 0.03 0.03 0.03 0.04 0.03 0.02 0.01 0.01 0.01 0.02 0.04 0.07 0.10 0.12 0.15 0.22 0.26 0.25 0.20 0.10 0.04 0.02 0.01 0.01 0.00 0.00 0.00 0.00
MSLP
1013.65 1013.61 1013.53 1013.44 1013.37 1013.35 1013.38 1013.46 1013.56 1013.66 1013.73 1013.77 1013.78 1013.78 1013.77 1013.79 1013.83 1013.92 1014.04 1014.19 1014.35 1014.53 1014.73 1014.95 1015.20 1015.50 1015.83 1016.21 1016.60 1017.00 1017.38 1017.73 1018.05 1018.34 1018.61 1018.89 1019.19 1019.50 1019.83 1020.17 1020.49 1020.78 1021.04
1013.39 1013.37 1013.32 1013.27 1013.24 1013.25 1013.27 1013.31 1013.35 1013.35 1013.32 1013.26 1013.18 1013.11 1013.05 1013.04 1013.08 1013.17 1013.31 1013.48 1013.67 1013.88 1014.11 1014.36 1014.65 1014.97 1015.33 1015.72 1016.13 1016.53 1016.92 1017.28 1017.62 1017.93 1018.24 1018.56 1018.89 1019.23 1019.58 1019.93 1020.26 1020.56 1020.81
1013.16 1013.16 1013.17 1013.18 1013.21 1013.25 1013.28 1013.27 1013.22 1013.11 1012.95 1012.76 1012.55 1012.38 1012.25 1012.19 1012.21 1012.30 1012.46 1012.65 1012.88 1013.13 1013.39 1013.68 1014.00 1014.36 1014.74 1015.15 1015.57 1015.99 1016.38 1016.76 1017.11 1017.45 1017.78 1018.13 1018.49 1018.87 1019.25 1019.62 1019.96 1020.27 1020.53
1012.94 1012.99 1013.06 1013.15 1013.25 1013.32 1013.35 1013.29 1013.15 1012.91 1012.59 1012.24 1011.89 1011.59 1011.37 1011.26 1011.25 1011.34 1011.51 1011.74 1012.00 1012.29 1012.60 1012.93 1013.29 1013.68 1014.09 1014.52 1014.95 1015.37 1015.78 1016.16 1016.53 1016.89 1017.25 1017.63 1018.02 1018.43 1018.84 1019.23 1019.60 1019.92 1020.20
1012.74 1012.82 1012.95 1013.11 1013.27 1013.38 1013.40 1013.30 1013.05 1012.68 1012.21 1011.70 1011.21 1010.78 1010.47 1010.29 1010.26 1010.34 1010.53 1010.79 1011.09 1011.43 1011.78 1012.15 1012.55 1012.96 1013.40 1013.84 1014.29 1014.72 1015.13 1015.53 1015.91 1016.28 1016.66 1017.06 1017.48 1017.92 1018.35 1018.78 1019.17 1019.52 1019.82
1012.54 1012.63 1012.80 1013.02 1013.22 1013.35 1013.36 1013.21 1012.89 1012.40 1011.80 1011.15 1010.53 1010.00 1009.61 1009.38 1009.31 1009.40 1009.60 1009.88 1010.21 1010.58 1010.97 1011.38 1011.80 1012.24 1012.69 1013.16 1013.61 1014.05 1014.47 1014.87 1015.26 1015.65 1016.04 1016.46 1016.90 1017.35 1017.81 1018.26 1018.68 1019.06 1019.40
1012.33 1012.40 1012.58 1012.82 1013.05 1013.19 1013.19 1013.00 1012.61 1012.04 1011.35 1010.61 1009.90 1009.30 1008.85 1008.59 1008.50 1008.58 1008.79 1009.08 1009.44 1009.82 1010.22 1010.65 1011.08 1011.54 1012.01 1012.48 1012.94 1013.39 1013.82 1014.22 1014.61 1015.01 1015.41 1015.83 1016.28 1016.75 1017.23 1017.70 1018.15 1018.56 1018.93
1012.09 1012.13 1012.29 1012.51 1012.74 1012.88 1012.87 1012.66 1012.24 1011.63 1010.90 1010.12 1009.38 1008.75 1008.28 1008.00 1007.91 1007.98 1008.18 1008.46 1008.81 1009.18 1009.57 1009.99 1010.42 1010.87 1011.34 1011.81 1012.28 1012.73 1013.17 1013.58 1013.97 1014.37 1014.77 1015.20 1015.65 1016.12 1016.61 1017.10 1017.57 1018.01 1018.41
1011.84 1011.81 1011.92 1012.11 1012.31 1012.44 1012.42 1012.21 1011.80 1011.21 1010.49 1009.73 1009.01 1008.40 1007.95 1007.68 1007.58 1007.63 1007.80 1008.05 1008.35 1008.68 1009.03 1009.41 1009.81 1010.24 1010.69 1011.16 1011.63 1012.08 1012.52 1012.94 1013.34 1013.73 1014.13 1014.55 1015.00 1015.47 1015.96 1016.46 1016.94 1017.41 1017.83
1011.59 1011.49 1011.53 1011.67 1011.83 1011.93 1011.91 1011.72 1011.35 1010.81 1010.17 1009.48 1008.83 1008.29 1007.88 1007.63 1007.52 1007.55 1007.67 1007.85 1008.08 1008.33 1008.60 1008.91 1009.26 1009.64 1010.07 1010.51 1010.97 1011.43 1011.87 1012.29 1012.70 1013.09 1013.49 1013.91 1014.35 1014.81 1015.29 1015.79 1016.28 1016.75 1017.20
1011.35 1011.18 1011.16 1011.23 1011.33 1011.41 1011.39 1011.23 1010.92 1010.47 1009.93 1009.36 1008.83 1008.37 1008.02 1007.80 1007.69 1007.68 1007.73 1007.82 1007.94 1008.09 1008.27 1008.49 1008.76 1009.09 1009.47 1009.89 1010.34 1010.79 1011.24 1011.67 1012.07 1012.47 1012.87 1013.27 1013.70 1014.15 1014.62 1015.10 1015.59 1016.07 1016.53
1011.14 1010.92 1010.82 1010.83 1010.88 1010.92 1010.90 1010.78 1010.54 1010.20 1009.78 1009.35 1008.93 1008.58 1008.31 1008.12 1008.00 1007.94 1007.92 1007.91 1007.92 1007.95 1008.02 1008.14 1008.33 1008.59 1008.93 1009.32 1009.75 1010.20 1010.65 1011.08 1011.50 1011.90 1012.29 1012.68 1013.09 1013.52 1013.97 1014.44 1014.92 1015.40 1015.87
1010.96 1010.69 1010.54 1010.48 1010.48 1010.49 1010.46 1010.37 1010.20 1009.96 1009.67 1009.36 1009.08 1008.83 1008.63 1008.48 1008.36 1008.26 1008.16 1008.06 1007.97 1007.89 1007.85 1007.88 1008.00 1008.20 1008.50 1008.86 1009.28 1009.72 1010.17 1010.60 1011.02 1011.42 1011.80 1012.18 1012.57 1012.98 1013.40 1013.85 1014.31 1014.78 1015.25
1010.80 1010.51 1010.31 1010.19 1010.13 1010.10 1010.05 1009.98 1009.86 1009.70 1009.52 1009.34 1009.17 1009.02 1008.90 1008.79 1008.68 1008.55 1008.39 1008.22 1008.05 1007.89 1007.78 1007.74 1007.80 1007.96 1008.22 1008.56 1008.97 1009.40 1009.85 1010.28 1010.69 1011.09 1011.46 1011.83 1012.20 1012.57 1012.97 1013.39 1013.83 1014.28 1014.74
1010.65 1010.34 1010.10 1009.93 1009.81 1009.72 1009.65 1009.57 1009.48 1009.38 1009.29 1009.20 1009.13 1009.08 1009.02 1008.96 1008.86 1008.73 1008.56 1008.35 1008.14 1007.94 1007.79 1007.72 1007.76 1007.90 1008.14 1008.47 1008.86 1009.29 1009.73 1010.16 1010.57 1010.95 1011.31 1011.66 1012.01 1012.36 1012.72 1013.10 1013.51 1013.93 1014.37
1010.47 1010.15 1009.88 1009.66 1009.48 1009.34 1009.22 1009.12 1009.04 1008.98 1008.93 1008.92 1008.92 1008.94 1008.95 1008.94 1008.88 1008.78 1008.62 1008.43 1008.22 1008.03 1007.89 1007.83 1007.87 1008.01 1008.26 1008.59 1008.98 1009.40 1009.83 1010.25 1010.65 1011.02 1011.37 1011.70 1012.02 1012.34 1012.67 1013.01 1013.37 1013.76 1014.16
1010.25 1009.92 1009.62 1009.36 1009.13 1008.93 1008.76 1008.62 1008.52 1008.46 1008.45 1008.47 1008.53 1008.60 1008.67 1008.71 1008.71 1008.66 1008.56 1008.42 1008.26 1008.13 1008.04 1008.02 1008.10 1008.28 1008.54 1008.88 1009.27 1009.69 1010.11 1010.53 1010.92 1011.28 1011.62 1011.93 1012.23 1012.52 1012.81 1013.12 1013.43 1013.77 1014.13
1009.97 1009.64 1009.32 1009.01 1008.73 1008.48 1008.26 1008.08 1007.95 1007.88 1007.86 1007.90 1007.98 1008.09 1008.21 1008.31 1008.37 1008.39 1008.37 1008.31 1008.24 1008.20 1008.19 1008.25 1008.38 1008.60 1008.90 1009.25 1009.65 1010.07 1010.49 1010.89 1011.28 1011.64 1011.97 1012.28 1012.56 1012.84 1013.10 1013.37 1013.64 1013.93 1014.23
1009.62 1009.28 1008.95 1008.62 1008.31 1008.01 1007.75 1007.53 1007.36 1007.25 1007.22 1007.25 1007.34 1007.47 1007.62 1007.77 1007.90 1007.99 1008.06 1008.10 1008.14 1008.19 1008.28 1008.42 1008.63 1008.90 1009.23 1009.61 1010.01 1010.43 1010.85 1011.26 1011.65 1012.01 1012.35 1012.66 1012.96 1013.22 1013.48 1013.72 1013.95 1014.19 1014.43
1009.21 1008.87 1008.53 1008.19 1007.85 1007.53 1007.24 1006.98 1006.77 1006.64 1006.57 1006.59 1006.67 1006.80 1006.97 1007.15 1007.33 1007.49 1007.64 1007.78 1007.92 1008.07 1008.26 1008.48 1008.76 1009.08 1009.45 1009.84 1010.26 1010.68 1011.11 1011.52 1011.92 1012.30 1012.66 1013.00 1013.31 1013.60 1013.85 1014.08 1014.30 1014.49 1014.69
1008.73 1008.39 1008.05 1007.72 1007.38 1007.05 1006.74 1006.46 1006.23 1006.06 1005.96 1005.94 1006.00 1006.12 1006.29 1006.49 1006.70 1006.92 1007.14 1007.36 1007.59 1007.83 1008.10 1008.40 1008.73 1009.09 1009.49 1009.90 1010.32 1010.75 1011.18 1011.61 1012.03 1012.44 1012.84 1013.22 1013.57 1013.89 1014.17 1014.42 1014.62 1014.80 1014.96
1008.20 1007.86 1007.54 1007.21 1006.89 1006.57 1006.25 1005.96 1005.71 1005.51 1005.39 1005.33 1005.36 1005.46 1005.62 1005.82 1006.06 1006.31 1006.59 1006.87 1007.16 1007.48 1007.81 1008.16 1008.53 1008.93 1009.34 1009.76 1010.19 1010.62 1011.06 1011.50 1011.95 1012.40 1012.84 1013.28 1013.69 1014.06 1014.39 1014.67 1014.89 1015.08 1015.23
1007.61 1007.28 1006.97 1006.67 1006.36 1006.06 1005.76 1005.47 1005.21 1005.00 1004.85 1004.77 1004.77 1004.84 1004.98 1005.19 1005.43 1005.71 1006.02 1006.35 1006.69 1007.05 1007.43 1007.82 1008.22 1008.63 1009.04 1009.46 1009.88 1010.32 1010.76 1011.22 1011.69 1012.18 1012.68 1013.17 1013.65 1014.09 1014.48 1014.82 1015.09 1015.30 1015.47
1006.98 1006.65 1006.36 1006.07 1005.80 1005.52 1005.23 1004.95 1004.70 1004.48 1004.32 1004.22 1004.20 1004.27 1004.40 1004.60 1004.86 1005.16 1005.49 1005.85 1006.23 1006.62 1007.03 1007.44 1007.85 1008.26 1008.67 1009.08 1009.49 1009.91 1010.35 1010.81 1011.31 1011.83 1012.37 1012.91 1013.45 1013.97 1014.44 1014.84 1015.19 1015.46 1015.67
1006.32 1005.98 1005.70 1005.43 1005.17 1004.91 1004.65 1004.39 1004.15 1003.94 1003.78 1003.69 1003.67 1003.74 1003.88 1004.08 1004.36 1004.68 1005.04 1005.43 1005.83 1006.25 1006.67 1007.09 1007.51 1007.91 1008.31 1008.70 1009.09 1009.49 1009.92 1010.37 1010.86 1011.39 1011.96 1012.55 1013.14 1013.72 1014.27 1014.76 1015.18 1015.53 1015.82
1005.63 1005.29 1005.00 1004.74 1004.50 1004.26 1004.02 1003.79 1003.57 1003.38 1003.25 1003.17 1003.18 1003.26 1003.42 1003.66 1003.96 1004.31 1004.70 1005.11 1005.54 1005.98 1006.41 1006.84 1007.25 1007.64 1008.02 1008.39 1008.75 1009.12 1009.51 1009.94 1010.42 1010.94 1011.51 1012.12 1012.75 1013.38 1013.99 1014.55 1015.06 1015.51 1015.88
Thickness
5748 5745 5743 5742 5742 5740 5739 5736 5734 5734 5733 5732 5731 5731 5732 5733 5734 5735 5737 5739 5739 5738 5737 5737 5737 5737 5737 5736 5735 5734 5733 5732 5731 5730 5729 5728 5727 5727 5726 5725 5724 5723 5723
5743 5741 5738 5736 5736 5736 5734 5733 5732 5730 5729 5729 5728 5729 5730 5730 5731 5732 5734 5736 5736 5736 5736 5735 5735 5735 5736 5735 5734 5734 5733 5732 5731 5729 5728 5728 5727 5726 5725 5724 5724 5723 5722
5737 5735 5733 5730 5729 5729 5729 5728 5727 5726 5725 5725 5724 5725 5726 5727 5728 5729 5731 5732 5734 5734 5734 5733 5733 5734 5734 5735 5734 5734 5733 5732 5731 5729 5728 5727 5727 5726 5725 5724 5723 5723 5722
5730 5728 5726 5724 5723 5722 5722 5722 5721 5720 5720 5720 5720 5721 5722 5724 5726 5727 5728 5729 5730 5731 5731 5732 5732 5732 5733 5734 5734 5734 5733 5733 5731 5730 5728 5727 5726 5725 5724 5723 5723 5722 5721
5722 5721 5719 5719 5718 5717 5717 5716 5716 5714 5714 5715 5716 5717 5719 5720 5723 5725 5726 5727 5728 5729 5729 5730 5731 5731 5732 5733 5735 5735 5734 5733 5731 5730 5728 5727 5726 5725 5724 5723 5722 5722 5721
5715 5714 5713 5711 5711 5710 5710 5709 5709 5710 5709 5709 5711 5714 5716 5718 5720 5722 5724 5725 5726 5727 5727 5729 5730 5730 5731 5732 5734 5735 5735 5733 5732 5731 5729 5727 5726 5725 5724 5723 5722 5721 5721
5708 5707 5706 5704 5703 5703 5703 5703 5703 5703 5703 5704 5703 5705 5710 5715 5717 5720 5721 5723 5724 5726 5727 5728 5729 5730 5731 5732 5733 5735 5735 5734 5732 5731 5729 5728 5726 5725 5724 5723 5722 5721 5721
5700 5699 5697 5696 5696 5695 5695 5695 5696 5695 5697 5698 5696 5695 5697 5703 5711 5718 5719 5720 5723 5724 5726 5727 5728 5729 5730 5732 5734 5734 5735 5734 5732 5731 5730 5728 5727 5725 5724 5722 5722 5721 5721
5692 5690 5689 5688 5688 5687 5687 5688 5688 5688 5688 5690 5692 5690 5689 5692 5700 5708 5714 5718 5721 5721 5724 5726 5728 5729 5730 5731 5733 5734 5734 5733 5733 5732 5730 5729 5727 5726 5724 5723 5722 5721 5721
5683 5682 5681 5680 5679 5679 5679 5680 5681 5680 5681 5681 5684 5687 5689 5692 5691 5695 5704 5712 5716 5718 5720 5724 5727 5728 5728 5729 5731 5733 5733 5733 5733 5732 5731 5730 5728 5726 5725 5723 5722 5721 5721
5673 5672 5671 5671 5670 5670 5671 5672 5672 5673 5674 5675 5676 5678 5681 5685 5688 5688 5691 5699 5706 5712 5717 5721 5724 5726 5727 5728 5729 5730 5731 5732 5732 5732 5731 5730 5728 5727 5726 5724 5723 5722 5721
5662 5662 5661 5660 5660 5660 5661 5662 5663 5664 5665 5667 5669 5671 5673 5676 5680 5683 5685 5690 5696 5704 5711 5716 5720 5722 5724 5725 5727 5729 5729 5730 5730 5730 5730 5729 5728 5727 5726 5725 5724 5723 5722
5650 5650 5651 5650 5650 5650 5651 5652 5653 5654 5656 5658 5660 5663 5666 5670 5674 5678 5679 5683 5688 5695 5702 5709 5715 5718 5721 5723 5725 5725 5726 5728 5728 5728 5729 5728 5728 5727 5726 5725 5724 5724 5723
5641 5641 5641 5640 5640 5641 5641 5641 5642 5644 5646 5648 5651 5654 5657 5661 5666 5670 5673 5675 5677 5683 5692 5700 5708 5713 5716 5718 5720 5721 5721 5723 5724 5725 5725 5726 5726 5726 5725 5724 5724 5723 5723
5633 5632 5631 5630 5630 5630 5631 5631 5631 5633 5635 5638 5641 5644 5648 5652 5656 5661 5666 5669 5671 5672 5679 5690 5697 5705 5709 5711 5714 5715 5716 5718 5719 5720 5721 5722 5723 5723 5723 5722 5722 5722 5722
5623 5621 5620 5619 5619 5619 5619 5620 5621 5622 5624 5627 5630 5633 5636 5641 5646 5651 5656 5661 5665 5668 5671 5680 5688 5695 5700 5703 5705 5708 5709 5711 5713 5714 5716 5717 5718 5719 5719 5719 5720 5720 5720
5612 5610 5609 5608 5608 5608 5608 5608 5609 5611 5613 5616 5619 5622 5626 5630 5634 5639 5644 5650 5656 5661 5664 5672 5678 5685 5689 5694 5696 5698 5700 5702 5704 5707 5709 5711 5712 5713 5714 5715 5715 5716 5717
5602 5600 5598 5597 5596 5596 5596 5596 5597 5599 5601 5604 5608 5611 5615 5619 5623 5628 5633 5639 5645 5651 5656 5661 5668 5674 5679 5684 5687 5689 5690 5693 5696 5699 5702 5704 5705 5707 5708 5709 5710 5711 5713
5591 5589 5587 5585 5584 5584 5584 5583 5584 5586 5589 5592 5596 5600 5604 5608 5611 5616 5622 5628 5634 5641 5647 5651 5657 5663 5668 5673 5675 5679 5681 5683 5686 5688 5692 5695 5697 5699 5701 5703 5705 5706 5708
5581 5579 5576 5574 5573 5572 5572 5572 5572 5574 5576 5580 5584 5589 5593 5597 5601 5606 5611 5616 5622 5628 5634 5640 5646 5651 5657 5663 5667 5668 5669 5672 5675 5679 5682 5685 5688 5691 5693 5696 5698 5701 5703
5574 5570 5567 5564 5562 5561 5562 5561 5561 5563 5564 5567 5571 5576 5581 5586 5591 5595 5601 5605 5610 5615 5621 5627 5633 5639 5645 5651 5657 5661 5662 5662 5665 5670 5673 5676 5679 5682 5684 5688 5691 5694 5697
5565 5561 5558 5555 5553 5553 5553 5552 5551 5551 5553 5555 5558 5563 5568 5574 5579 5584 5591 5596 5601 5605 5609 5615 5621 5628 5636 5643 5649 5652 5654 5654 5656 5660 5665 5666 5670 5672 5675 5679 5683 5687 5690
5558 5554 5551 5548 5545 5544 5544 5543 5543 5542 5542 5543 5546 5551 5557 5564 5567 5572 5578 5584 5590 5597 5603 5607 5611 5618 5625 5634 5640 5643 5646 5650 5654 5657 5657 5657 5660 5663 5666 5670 5675 5678 5682
5552 5548 5545 5542 5539 5538 5537 5536 5535 5534 5534 5534 5537 5540 5544 5550 5555 5560 5565 5571 5577 5584 5592 5599 5605 5610 5616 5623 5630 5637 5640 5641 5644 5647 5652 5651 5652 5655 5657 5661 5665 5669 5673
5548 5543 5540 5537 5534 5532 5531 5529 5527 5525 5525 5526 5528 5531 5535 5540 5545 5549 5554 5559 5565 5572 5579 5586 5593 5599 5606 5613 5620 5624 5628 5632 5635 5639 5644 5647 5647 5647 5648 5651 5655 5659 5663
5544 5540 5536 5533 5529 5527 5525 5523 5521 5518 5518 5518 5519 5522 5527 5531 5535 5539 5543 5549 5554 5560 5568 5574 5580 5587 5594 5602 5609 5616 5622 5626 5630 5633 5638 5641 5641 5641 5640 5642 5646 5649 5653